DW1347 Weather Reports


time (UTC)temp
F
wind
direction
speed
knots
gust
knots
rain 1hr
in
rain 24hr
in
rain mn
in
humidity
%
barometer
mb
20220812172600 74 222 2.6 2.6 0.00 0.00 0.00 45 1035.6
20220812172059 75 109 0.9 0.9 0.00 0.00 0.00 44 1035.7
20220812171559 73 164 1.7 2.6 0.00 0.00 0.00 47 1035.7
20220812171058 74 15 4.3 6.1 0.00 0.00 0.00 46 1035.8
20220812170557 74 177 1.7 1.7 0.00 0.00 0.00 45 1036.0
20220812170056 75 127 3.5 5.2 0.00 0.00 0.00 43 1036.0
20220812165555 73 286 0.9 0.9 0.00 0.00 0.00 47 1036.0
20220812165056 74 166 0.9 1.7 0.00 0.00 0.00 45 1036.0
20220812164555 71 68 1.7 4.3 0.00 0.00 0.00 46 1036.1
20220812164054 73 202 0.9 0.9 0.00 0.00 0.00 46 1036.3
20220812163554 71 220 0.0 0.9 0.00 0.00 0.00 49 1036.1
20220812163053 70 32 2.6 2.6 0.00 0.00 0.00 50 1036.1
20220812162553 70 14 2.6 2.6 0.00 0.00 0.00 50 1036.1
20220812162053 71 235 0.9 0.9 0.00 0.00 0.00 50 1036.1
20220812161552 70 305 2.6 2.6 0.00 0.00 0.00 50 1036.5
20220812161050 70 57 0.9 1.7 0.00 0.00 0.00 50 1036.3
20220812160549 70 98 1.7 1.7 0.00 0.00 0.00 50 1036.2
20220812160048 70 108 1.7 1.7 0.00 0.00 0.00 51 1036.7
20220812155547 69 309 2.6 2.6 0.00 0.00 0.00 52 1036.5
20220812155047 69 214 0.9 1.7 0.00 0.00 0.00 53 1036.5
20220812154546 69 325 0.9 2.6 0.00 0.00 0.00 52 1036.3
20220812154045 68 3 4.3 5.2 0.00 0.00 0.00 54 1036.2
20220812153545 69 10 4.3 5.2 0.00 0.00 0.00 53 1036.3
20220812153044 69 7 4.3 5.2 0.00 0.00 0.00 53 1036.6
20220812152544 68 19 2.6 4.3 0.00 0.00 0.00 54 1036.2
20220812152045 68 310 2.6 2.6 0.00 0.00 0.00 54 1036.2
20220812151544 69 204 0.9 1.7 0.00 0.00 0.00 52 1036.1
20220812151043 68 144 2.6 2.6 0.00 0.00 0.00 53 1036.2
20220812150543 67 14 1.7 1.7 0.00 0.00 0.00 55 1036.2
20220812150041 66 307 3.5 4.3 0.00 0.00 0.00 55 1036.3
20220812145540 66 27 1.7 2.6 0.00 0.00 0.00 52 1036.2
20220812145039 66 311 0.9 0.9 0.00 0.00 0.00 52 1036.2
20220812144540 65 260 0.9 1.7 0.00 0.00 0.00 52 1036.1
20220812144039 65 324 1.7 1.7 0.00 0.00 0.00 51 1036.3
20220812143539 65 310 0.9 0.9 0.00 0.00 0.00 55 1036.3
20220812143039 64 239 0.0 0.0 0.00 0.00 0.00 57 1036.2
20220812142538 63 223 0.9 0.9 0.00 0.00 0.00 59 1036.1
20220812142037 63 242 0.0 0.0 0.00 0.00 0.00 59 1036.1
20220812141538 62 228 0.0 0.0 0.00 0.00 0.00 60 1035.8
20220812141036 62 232 0.0 0.0 0.00 0.00 0.00 63 1035.8
20220812140535 61 242 0.0 0.0 0.00 0.00 0.00 66 1036.0
20220812140034 61 233 0.0 0.0 0.00 0.00 0.00 67 1036.1
20220812135533 60 216 0.0 0.0 0.00 0.00 0.00 66 1036.0
20220812135032 60 233 0.0 0.0 0.00 0.00 0.00 65 1036.0
20220812134531 61 241 0.0 0.0 0.00 0.00 0.00 63 1035.8
20220812134030 60 233 0.0 0.0 0.00 0.00 0.00 65 1035.8
20220812133529 60 233 0.0 0.0 0.00 0.00 0.00 62 1035.8
20220812133027 59 228 0.0 0.0 0.00 0.00 0.00 63 1035.8
20220812132528 57 230 0.0 0.0 0.00 0.00 0.00 67 1035.6
20220812132027 57 236 0.0 0.0 0.00 0.00 0.00 68 1035.7
20220812131525 57 189 0.9 0.9 0.00 0.00 0.00 68 1035.6
20220812131025 56 232 0.0 0.9 0.00 0.00 0.00 69 1035.5
20220812130523 55 226 0.0 0.0 0.00 0.00 0.00 69 1035.6
20220812130022 53 210 0.9 0.9 0.00 0.00 0.00 72 1035.3
20220812125521 53 188 1.7 1.7 0.00 0.00 0.00 74 1035.2
20220812125020 53 240 0.9 1.7 0.00 0.00 0.00 71 1035.5
20220812124519 54 260 0.9 0.9 0.00 0.00 0.00 71 1035.2
20220812124019 53 211 0.9 0.9 0.00 0.00 0.00 70 1035.1
20220812123518 53 232 0.0 0.0 0.00 0.00 0.00 70 1034.8
20220812123018 53 227 0.0 0.0 0.00 0.00 0.00 69 1035.1
20220812122517 53 221 0.0 0.0 0.00 0.00 0.00 71 1035.0
20220812122017 53 222 0.0 0.0 0.00 0.00 0.00 72 1034.8
20220812121516 53 236 0.0 0.0 0.00 0.00 0.00 71 1034.8
20220812121016 53 230 0.0 0.0 0.00 0.00 0.00 71 1035.0
20220812120514 53 240 0.0 0.0 0.00 0.00 0.00 71 1034.8
20220812120014 54 251 0.0 0.0 0.00 0.00 0.00 69 1034.8
20220812115513 53 225 0.0 0.0 0.00 0.00 0.00 71 1035.0
20220812115013 53 231 0.0 0.0 0.00 0.00 0.00 71 1035.0
20220812114512 53 228 0.0 0.0 0.00 0.00 0.00 71 1034.8
20220812114011 53 230 0.0 0.0 0.00 0.00 0.00 70 1034.5
20220812113510 53 174 1.7 1.7 0.00 0.00 0.00 70 1034.7
20220812113009 53 228 0.0 0.0 0.00 0.00 0.00 70 1034.8
20220812112508 53 221 0.0 0.0 0.00 0.00 0.00 71 1034.6
20220812112007 53 223 0.0 0.0 0.00 0.00 0.00 70 1034.7
20220812111506 52 211 0.9 0.9 0.00 0.00 0.00 71 1034.7
20220812111005 53 239 0.9 0.9 0.00 0.00 0.00 70 1034.7
20220812110503 53 182 1.7 1.7 0.00 0.00 0.00 71 1034.7
20220812110002 53 230 0.0 0.0 0.00 0.00 0.00 70 1034.6
20220812105501 53 222 0.0 0.0 0.00 0.00 0.00 70 1034.5
20220812105001 53 221 0.0 0.0 0.00 0.00 0.00 70 1034.5
20220812104500 54 232 0.0 0.9 0.00 0.00 0.00 68 1034.5
20220812104000 54 203 0.9 0.9 0.00 0.00 0.00 68 1034.2
20220812103501 53 237 0.0 0.0 0.00 0.00 0.00 69 1034.1
20220812103000 53 227 0.0 0.0 0.00 0.00 0.00 69 1034.3
20220812102458 53 227 0.0 0.0 0.00 0.00 0.00 70 1034.2
20220812101958 53 237 0.0 0.0 0.00 0.00 0.00 70 1034.3
20220812101456 54 232 0.0 0.0 0.00 0.00 0.00 68 1034.2
20220812100956 54 226 0.0 0.0 0.00 0.00 0.00 68 1034.1
20220812100456 55 234 0.0 0.0 0.00 0.00 0.00 68 1034.2
20220812095955 55 240 0.0 0.0 0.00 0.00 0.00 66 1034.2
20220812095454 56 236 0.0 0.0 0.00 0.00 0.00 65 1034.2
20220812094954 56 239 0.0 0.0 0.00 0.00 0.00 64 1034.5
20220812094453 56 236 0.0 0.0 0.00 0.00 0.00 62 1034.3
20220812093953 56 236 0.9 0.9 0.00 0.00 0.00 65 1034.6
20220812093452 56 227 0.9 0.9 0.00 0.00 0.00 63 1034.5
20220812092951 55 233 0.0 0.0 0.00 0.00 0.00 65 1034.2
20220812092451 56 238 0.0 0.0 0.00 0.00 0.00 64 1034.6
20220812091951 57 225 0.0 0.0 0.00 0.00 0.00 63 1034.3
20220812091450 56 225 0.0 0.0 0.00 0.00 0.00 63 1034.5
20220812090949 56 234 0.0 0.0 0.00 0.00 0.00 64 1034.5
20220812090449 57 209 0.9 1.7 0.00 0.00 0.00 62 1034.5
20220812085949 56 226 0.0 0.0 0.00 0.00 0.00 64 1034.2
20220812085448 57 228 0.0 0.0 0.00 0.00 0.00 63 1034.2
20220812084948 57 203 0.9 0.9 0.00 0.00 0.00 62 1034.3
20220812084448 56 217 0.9 0.9 0.00 0.00 0.00 65 1034.1
20220812083947 56 237 0.0 0.0 0.00 0.00 0.00 64 1034.1
20220812083446 56 222 0.0 0.0 0.00 0.00 0.00 63 1033.9
20220812082946 56 226 0.0 0.0 0.00 0.00 0.00 65 1033.9
20220812082445 55 230 0.0 0.0 0.00 0.00 0.00 66 1033.9
20220812081944 55 213 0.0 0.9 0.00 0.00 0.00 67 1034.1
20220812081444 55 232 0.0 0.0 0.00 0.00 0.00 68 1034.2
20220812080944 56 205 0.9 0.9 0.00 0.00 0.00 66 1033.8
20220812080442 55 187 1.7 1.7 0.00 0.00 0.00 68 1034.1
20220812075941 55 205 0.9 0.9 0.00 0.00 0.00 67 1033.9
20220812075440 55 241 0.0 0.0 0.00 0.00 0.00 69 1033.7
20220812074940 55 242 0.0 0.0 0.00 0.00 0.00 68 1033.8
20220812074440 55 203 0.9 0.9 0.00 0.00 0.00 69 1033.9
20220812073939 55 210 0.9 0.9 0.00 0.00 0.00 68 1033.6
20220812073438 56 225 0.0 0.0 0.00 0.00 0.00 66 1034.1
20220812072936 56 235 0.0 0.0 0.00 0.00 0.00 66 1033.8
20220812072435 56 222 0.0 0.0 0.00 0.00 0.00 65 1033.3
20220812071931 56 217 0.9 0.9 0.00 0.00 0.00 64 1033.7
20220812071430 56 219 0.0 0.9 0.00 0.00 0.00 67 1033.3
20220812070928 56 195 1.7 1.7 0.00 0.00 0.00 68 1033.8
20220812070428 56 237 0.0 0.0 0.00 0.00 0.00 67 1033.7
20220812065928 57 237 0.0 0.0 0.00 0.00 0.00 66 1033.8
20220812065427 58 232 0.0 0.0 0.00 0.00 0.00 65 1033.4
20220812064926 57 231 0.0 0.0 0.00 0.00 0.00 63 1033.7
20220812064425 58 231 0.0 0.0 0.00 0.00 0.00 65 1033.7
20220812063924 58 218 0.0 0.9 0.00 0.00 0.00 63 1033.8
20220812063423 57 194 0.9 0.9 0.00 0.00 0.00 64 1033.9
20220812062922 58 236 0.0 0.0 0.00 0.00 0.00 62 1033.4
20220812062421 59 236 0.0 0.0 0.00 0.00 0.00 65 1033.7
20220812061921 58 219 0.9 0.9 0.00 0.00 0.00 64 1033.7
20220812061420 59 235 0.0 0.0 0.00 0.00 0.00 64 1033.7
20220812060919 58 223 0.0 0.9 0.00 0.00 0.00 66 1033.7
20220812060418 58 233 0.0 0.0 0.00 0.00 0.00 65 1033.6
20220812055918 59 180 1.7 1.7 0.00 0.00 0.00 64 1034.1
20220812055416 59 233 0.0 0.0 0.00 0.00 0.00 65 1034.2
20220812054917 60 223 0.9 0.9 0.00 0.00 0.00 61 1033.9
20220812054416 59 234 0.9 0.9 0.00 0.00 0.00 63 1034.2
20220812053915 59 219 0.0 0.9 0.00 0.00 0.00 60 1033.9
20220812053414 59 215 0.9 0.9 0.00 0.00 0.00 62 1033.9
20220812052914 58 167 1.7 1.7 0.00 0.00 0.00 62 1033.9
20220812052413 59 217 0.9 0.9 0.00 0.00 0.00 60 1033.9
20220812051912 58 232 0.0 0.0 0.00 0.00 0.00 64 1033.8
20220812051411 58 234 0.0 0.0 0.00 0.00 0.00 64 1033.7
20220812050911 59 247 0.9 1.7 0.00 0.00 0.00 65 1034.2
20220812050410 59 170 1.7 1.7 0.00 0.00 0.00 63 1034.2
20220812045909 59 219 0.9 0.9 0.00 0.00 0.00 63 1033.7
20220812045408 59 245 0.0 0.0 0.00 0.00 0.00 64 1033.8
20220812044908 59 231 0.0 0.0 0.00 0.00 0.00 62 1033.8
20220812044408 59 231 0.0 0.0 0.00 0.00 0.00 64 1034.1
20220812043906 59 233 0.0 0.0 0.00 0.00 0.00 62 1033.8
20220812043407 60 235 0.0 0.0 0.00 0.00 0.00 61 1034.1
20220812042906 59 224 0.0 0.9 0.00 0.00 0.00 62 1034.2
20220812042406 59 236 0.0 0.0 0.00 0.00 0.00 63 1034.2
20220812041904 59 234 0.0 0.0 0.00 0.00 0.00 63 1033.9
20220812041405 60 236 0.0 0.0 0.00 0.00 0.00 62 1034.1
20220812040904 60 244 0.0 0.0 0.00 0.00 0.00 60 1034.1
20220812040403 60 231 0.0 0.0 0.00 0.00 0.00 61 1033.9
20220812035902 60 227 0.0 0.0 0.00 0.00 0.00 60 1033.9
20220812035401 61 235 0.0 0.0 0.00 0.00 0.00 61 1033.8
20220812034900 61 236 0.0 0.0 0.00 0.00 0.00 61 1033.8
20220812034359 62 199 0.9 1.7 0.00 0.00 0.00 57 1033.9
20220812033859 62 221 0.0 0.0 0.00 0.00 0.00 61 1033.8
20220812033358 62 233 0.0 0.0 0.00 0.00 0.00 61 1034.1
20220812032856 62 230 0.0 0.0 0.00 0.00 0.00 59 1033.9
20220812032355 62 235 0.0 0.0 0.00 0.00 0.00 60 1033.7
20220812031854 62 235 0.0 0.0 0.00 0.00 0.00 60 1034.1
20220812031353 63 231 0.0 0.0 0.00 0.00 0.00 60 1033.8
20220812030853 63 233 0.0 0.0 0.00 0.00 0.00 60 1033.8
20220812030353 64 234 0.0 0.0 0.00 0.00 0.00 58 1033.7
20220812025851 65 228 0.0 0.0 0.00 0.00 0.00 58 1033.4
20220812025351 66 233 0.0 0.0 0.00 0.00 0.00 57 1033.7
20220812024850 66 227 0.9 0.9 0.00 0.00 0.00 54 1033.3
20220812024349 67 234 0.0 0.0 0.00 0.00 0.00 53 1033.4
20220812023849 68 235 0.0 0.0 0.00 0.00 0.00 51 1033.4
20220812023348 69 213 0.0 0.0 0.00 0.00 0.00 50 1033.6
20220812022848 70 180 0.9 0.9 0.00 0.00 0.00 45 1033.4
20220812022347 70 242 0.9 0.9 0.00 0.00 0.00 46 1033.3
20220812021846 70 236 0.9 0.9 0.00 0.00 0.00 47 1033.2
20220812021345 70 223 0.0 0.0 0.00 0.00 0.00 46 1033.2
20220812020845 69 212 0.9 0.9 0.00 0.00 0.00 47 1033.3
20220812020345 70 231 0.0 0.0 0.00 0.00 0.00 49 1032.9
20220812015844 70 237 0.0 0.0 0.00 0.00 0.00 49 1033.1
20220812015343 71 223 0.9 0.9 0.00 0.00 0.00 49 1033.2
20220812014843 71 223 0.9 0.9 0.00 0.00 0.00 48 1033.2
20220812014342 72 230 0.0 0.0 0.00 0.00 0.00 48 1032.9
20220812013841 72 156 0.9 0.9 0.00 0.00 0.00 48 1033.1
20220812013339 72 228 0.0 0.0 0.00 0.00 0.00 47 1033.1
20220812012839 73 228 0.0 0.0 0.00 0.00 0.00 46 1033.1
20220812012338 73 228 0.0 0.0 0.00 0.00 0.00 45 1032.8
20220812011837 74 226 0.0 0.0 0.00 0.00 0.00 44 1032.6
20220812011335 75 232 0.0 0.0 0.00 0.00 0.00 44 1032.8
20220812010834 75 235 0.0 0.0 0.00 0.00 0.00 45 1032.8
20220812010333 76 230 0.0 0.0 0.00 0.00 0.00 45 1032.4
20220812005831 77 232 0.0 0.0 0.00 0.00 0.00 40 1032.6
20220812005331 77 230 0.0 0.0 0.00 0.00 0.00 40 1032.6
20220812004830 78 222 0.9 0.9 0.00 0.00 0.00 39 1032.7
20220812004329 78 230 0.0 0.0 0.00 0.00 0.00 37 1032.4
20220812003827 78 236 0.0 0.0 0.00 0.00 0.00 36 1032.7
20220812003325 79 304 0.0 0.9 0.00 0.00 0.00 34 1032.7
20220812002824 79 248 0.9 0.9 0.00 0.00 0.00 34 1032.8
20220812002324 80 245 0.0 0.0 0.00 0.00 0.00 33 1032.8
20220812001823 80 249 0.9 0.9 0.00 0.00 0.00 32 1032.7
20220812001323 80 250 0.0 0.0 0.00 0.00 0.00 31 1032.7
20220812000822 81 237 0.0 0.0 0.00 0.00 0.00 31 1032.6
20220812000321 80 24 1.7 2.6 0.00 0.00 0.00 30 1032.7
20220811235821 80 238 0.0 0.0 0.00 0.00 0.00 31 1032.7
20220811235320 80 81 2.6 4.3 0.00 0.00 0.00 31 1032.9
20220811234818 80 230 0.9 0.9 0.00 0.00 0.00 33 1032.9
20220811234317 81 309 0.0 1.7 0.00 0.00 0.00 30 1032.9
20220811233816 82 261 0.0 0.0 0.00 0.00 0.00 31 1032.8
20220811233316 82 238 0.9 0.9 0.00 0.00 0.00 31 1032.9
20220811232815 83 134 3.5 4.3 0.00 0.00 0.00 30 1032.8
20220811232315 84 312 1.7 1.7 0.00 0.00 0.00 30 1033.2
20220811231814 83 131 1.7 1.7 0.00 0.00 0.00 30 1032.9
20220811231313 83 135 3.5 4.3 0.00 0.00 0.00 31 1033.1
20220811230813 83 0 3.5 5.2 0.00 0.00 0.00 28 1033.2
20220811230311 83 183 1.7 2.6 0.00 0.00 0.00 30 1033.3
20220811225811 83 31 3.5 4.3 0.00 0.00 0.00 33 1033.2
20220811225310 83 309 4.3 7.0 0.00 0.00 0.00 31 1033.1
20220811224810 83 271 1.7 1.7 0.00 0.00 0.00 32 1033.1
20220811224309 82 279 0.9 1.7 0.00 0.00 0.00 34 1033.3
20220811223808 84 338 3.5 5.2 0.00 0.00 0.00 34 1033.3
20220811223307 83 219 0.9 0.9 0.00 0.00 0.00 34 1033.2
20220811222807 82 27 2.6 4.3 0.00 0.00 0.00 34 1033.3
20220811222306 83 24 2.6 2.6 0.00 0.00 0.00 35 1033.3
20220811221805 81 350 1.7 2.6 0.00 0.00 0.00 36 1033.3
20220811221305 82 265 2.6 4.3 0.00 0.00 0.00 35 1033.3
20220811220805 83 59 2.6 2.6 0.00 0.00 0.00 34 1033.2
20220811220305 83 223 0.9 0.9 0.00 0.00 0.00 34 1033.3
20220811215805 82 238 0.0 0.0 0.00 0.00 0.00 35 1033.4
20220811215305 82 284 0.0 0.9 0.00 0.00 0.00 35 1033.6
20220811214804 82 232 0.0 0.0 0.00 0.00 0.00 36 1033.4
20220811214304 81 237 0.0 0.9 0.00 0.00 0.00 36 1033.6
20220811213803 82 121 4.3 5.2 0.00 0.00 0.00 34 1033.7
20220811213302 81 205 0.9 0.9 0.00 0.00 0.00 36 1033.7
20220811212801 82 207 0.9 1.7 0.00 0.00 0.00 36 1033.7
20220811212300 85 290 0.9 0.9 0.00 0.00 0.00 33 1033.7
20220811211759 84 193 1.7 1.7 0.00 0.00 0.00 33 1033.9
20220811211259 83 277 1.7 1.7 0.00 0.00 0.00 35 1033.6
20220811210759 84 171 2.6 2.6 0.00 0.00 0.00 34 1033.7
20220811210258 84 195 0.9 1.7 0.00 0.00 0.00 35 1033.9
20220811205756 83 324 4.3 5.2 0.00 0.00 0.00 34 1034.1
20220811205254 82 352 7.8 9.6 0.00 0.00 0.00 36 1034.2
20220811204754 84 93 0.9 1.7 0.00 0.00 0.00 33 1034.1
20220811204252 84 34 1.7 2.6 0.00 0.00 0.00 35 1034.1
20220811203750 82 170 4.3 6.1 0.00 0.00 0.00 35 1034.2
20220811203249 83 281 4.3 6.1 0.00 0.00 0.00 35 1034.1
20220811202748 84 311 0.9 1.7 0.00 0.00 0.00 35 1034.3
20220811202247 84 316 1.7 2.6 0.00 0.00 0.00 35 1034.2
20220811201746 83 88 2.6 4.3 0.00 0.00 0.00 35 1034.3
20220811201245 83 295 3.5 5.2 0.00 0.00 0.00 35 1034.3
20220811200745 83 355 4.3 5.2 0.00 0.00 0.00 34 1034.5
20220811200244 83 166 4.3 7.0 0.00 0.00 0.00 35 1034.3
20220811195743 84 234 0.9 0.9 0.00 0.00 0.00 34 1034.5
20220811195242 82 27 4.3 6.1 0.00 0.00 0.00 35 1034.3
20220811194742 83 235 1.7 1.7 0.00 0.00 0.00 35 1034.7
20220811194241 83 203 1.7 1.7 0.00 0.00 0.00 36 1034.7
20220811193740 82 244 0.9 0.9 0.00 0.00 0.00 35 1034.8
20220811193238 83 15 3.5 4.3 0.00 0.00 0.00 35 1034.8
20220811192738 82 140 2.6 2.6 0.00 0.00 0.00 36 1034.5
20220811192236 82 35 4.3 5.2 0.00 0.00 0.00 36 1034.5
20220811191736 82 9 1.7 4.3 0.00 0.00 0.00 36 1034.6
20220811191235 82 261 2.6 4.3 0.00 0.00 0.00 35 1034.6
20220811190733 82 220 0.9 0.9 0.00 0.00 0.00 35 1034.5
20220811190233 81 298 0.9 0.9 0.00 0.00 0.00 35 1034.7
20220811185732 82 39 2.6 4.3 0.00 0.00 0.00 35 1034.7
20220811185231 81 9 0.9 1.7 0.00 0.00 0.00 34 1034.7
20220811184730 82 166 3.5 5.2 0.00 0.00 0.00 36 1035.0
20220811184228 81 108 2.6 2.6 0.00 0.00 0.00 36 1034.8
20220811183728 82 70 1.7 1.7 0.00 0.00 0.00 36 1034.7
20220811183227 81 48 2.6 2.6 0.00 0.00 0.00 37 1034.8
20220811182727 80 110 1.7 2.6 0.00 0.00 0.00 37 1034.8
20220811182226 83 356 0.9 0.9 0.00 0.00 0.00 36 1035.0
20220811181724 83 278 6.1 7.0 0.00 0.00 0.00 34 1035.1
20220811181223 80 335 5.2 5.2 0.00 0.00 0.00 35 1035.1
20220811180724 81 8 5.2 7.0 0.00 0.00 0.00 35 1035.0
20220811180223 81 222 2.6 2.6 0.00 0.00 0.00 36 1035.1
20220811175722 80 266 4.3 5.2 0.00 0.00 0.00 36 1034.8
20220811175222 83 2 3.5 4.3 0.00 0.00 0.00 34 1035.1
20220811174720 81 97 2.6 4.3 0.00 0.00 0.00 34 1035.1
20220811174218 81 43 0.9 1.7 0.00 0.00 0.00 36 1035.1
20220811173718 80 139 0.9 0.9 0.00 0.00 0.00 36 1035.0
20220811173219 81 4 7.8 7.8 0.00 0.00 0.00 35 1035.0